• In Uzbekistan
  • List of Countries
  • For 7 days
  • Water Temperature
  • Satellite Maps
  • Weather Map
  • Weather Widgets
  • user-avatar
    Login

    Hourly Weather Friesoythe

    Today, 17 December, Sunday

    Time Temperature Precipitation Wind Pressure Humidity
    00:00 0°C° 0.3 mm 4 mps 759 mmHg 87%
    01:00 0°C° 0 mm 4 mps 760 mmHg 89%
    02:00 0°C° 0 mm 4 mps 760 mmHg 88%
    03:00 -1°C° 0 mm 4 mps 761 mmHg 88%
    04:00 -1°C° 0 mm 4 mps 761 mmHg 88%
    05:00 0°C° 0 mm 3 mps 762 mmHg 87%
    06:00 0°C° 0 mm 3 mps 762 mmHg 87%
    07:00 -1°C° 0 mm 2 mps 763 mmHg 89%
    08:00 +1°C° 0 mm 2 mps 763 mmHg 88%
    09:00 +1°C° 0 mm 2 mps 764 mmHg 87%
    10:00 +2°C° 0 mm 2 mps 764 mmHg 86%
    11:00 +3°C° 0 mm 2 mps 765 mmHg 84%
    12:00 +3°C° 0 mm 2 mps 765 mmHg 81%
    13:00 +4°C° 0 mm 2 mps 765 mmHg 79%
    14:00 +4°C° 0 mm 2 mps 765 mmHg 82%
    15:00 +2°C° 0 mm 3 mps 765 mmHg 86%
    16:00 +1°C° 0 mm 3 mps 765 mmHg 90%
    17:00 +1°C° 0 mm 3 mps 765 mmHg 90%
    18:00 +1°C° 0 mm 3 mps 765 mmHg 91%
    19:00 -1°C° 0 mm 4 mps 765 mmHg 92%
    20:00 -1°C° 0 mm 4 mps 765 mmHg 91%
    21:00 0°C° 0 mm 4 mps 764 mmHg 91%
    22:00 0°C° 0 mm 5 mps 764 mmHg 91%
    23:00 0°C° 0.3 mm 5 mps 764 mmHg 89%

    Tomorrow, 18 December, Monday

    Time Temperature Precipitation Wind Pressure Humidity
    00:00 0°C° 0.3 mm 5 mps 763 mmHg 88%
    01:00 -1°C° 0.3 mm 6 mps 763 mmHg 86%
    02:00 -1°C° 0.4 mm 6 mps 762 mmHg 87%
    03:00 -1°C° 0.4 mm 6 mps 762 mmHg 89%
    04:00 -1°C° 0.4 mm 6 mps 762 mmHg 90%
    05:00 0°C° 0.3 mm 5 mps 762 mmHg 91%
    06:00 0°C° 0.3 mm 4 mps 762 mmHg 93%
    07:00 +1°C° 0.3 mm 3 mps 762 mmHg 94%
    08:00 +2°C° 0 mm 3 mps 763 mmHg 94%
    09:00 +3°C° 0 mm 2 mps 764 mmHg 94%
    10:00 +3°C° 0 mm 2 mps 764 mmHg 94%
    11:00 +4°C° 0 mm 2 mps 765 mmHg 92%
    12:00 +4°C° 0 mm 2 mps 765 mmHg 91%
    13:00 +5°C° 0 mm 2 mps 765 mmHg 90%
    14:00 +5°C° 0 mm 2 mps 766 mmHg 90%
    15:00 +4°C° 0 mm 2 mps 766 mmHg 91%
    16:00 +3°C° 0 mm 3 mps 767 mmHg 92%
    17:00 +3°C° 0 mm 3 mps 767 mmHg 92%
    18:00 +3°C° 0 mm 3 mps 768 mmHg 92%
    19:00 +3°C° 0 mm 3 mps 769 mmHg 91%
    20:00 +2°C° 0 mm 3 mps 769 mmHg 91%
    21:00 +2°C° 0 mm 3 mps 769 mmHg 90%
    22:00 +2°C° 0 mm 3 mps 770 mmHg 90%
    23:00 +2°C° 0 mm 3 mps 770 mmHg 90%

    Day after tomorrow, 19 December, Tuesday

    Time Temperature Precipitation Wind Pressure Humidity
    00:00 +2°C° 0 mm 3 mps 770 mmHg 90%
    01:00 +2°C° 0 mm 3 mps 771 mmHg 90%
    02:00 +2°C° 0 mm 3 mps 771 mmHg 91%
    03:00 +2°C° 0 mm 3 mps 771 mmHg 91%
    04:00 +2°C° 0 mm 3 mps 771 mmHg 92%
    05:00 +2°C° 0 mm 3 mps 771 mmHg 92%
    06:00 +2°C° 0 mm 3 mps 771 mmHg 93%
    07:00 +2°C° 0 mm 3 mps 772 mmHg 93%
    08:00 +3°C° 0 mm 3 mps 772 mmHg 94%
    09:00 +3°C° 0 mm 3 mps 772 mmHg 94%
    10:00 +3°C° 0 mm 3 mps 773 mmHg 94%
    11:00 +4°C° 0 mm 3 mps 773 mmHg 92%
    12:00 +5°C° 0 mm 3 mps 773 mmHg 91%
    13:00 +7°C° 0 mm 3 mps 773 mmHg 89%
    14:00 +5°C° 0 mm 3 mps 773 mmHg 90%
    15:00 +5°C° 0 mm 3 mps 773 mmHg 91%
    16:00 +4°C° 0 mm 3 mps 773 mmHg 93%
    17:00 +4°C° 0 mm 3 mps 773 mmHg 93%
    18:00 +4°C° 0 mm 3 mps 773 mmHg 93%
    19:00 +5°C° 0 mm 2 mps 773 mmHg 93%
    20:00 +4°C° 0 mm 3 mps 773 mmHg 93%
    21:00 +4°C° 0 mm 3 mps 773 mmHg 93%
    22:00 +4°C° 0 mm 3 mps 773 mmHg 93%
    23:00 +4°C° 0 mm 3 mps 773 mmHg 94%

    20 December, Wednesday

    Time Temperature Precipitation Wind Pressure Humidity
    00:00 +4°C° 0 mm 3 mps 773 mmHg 94%
    01:00 +4°C° 0 mm 3 mps 773 mmHg 94%
    02:00 +4°C° 0.1 mm 3 mps 772 mmHg 95%
    03:00 +4°C° 0.1 mm 3 mps 772 mmHg 95%
    04:00 +4°C° 0.1 mm 3 mps 772 mmHg 96%
    05:00 +4°C° 0 mm 3 mps 772 mmHg 96%
    06:00 +5°C° 0 mm 3 mps 772 mmHg 96%
    07:00 +5°C° 0 mm 3 mps 772 mmHg 96%
    08:00 +5°C° 0 mm 3 mps 772 mmHg 96%
    09:00 +5°C° 0 mm 3 mps 772 mmHg 96%
    10:00 +5°C° 0 mm 3 mps 772 mmHg 97%
    11:00 +7°C° 0 mm 3 mps 772 mmHg 96%
    12:00 +8°C° 0 mm 3 mps 772 mmHg 95%
    13:00 +8°C° 0 mm 3 mps 772 mmHg 94%
    14:00 +8°C° 0 mm 3 mps 772 mmHg 95%
    15:00 +8°C° 0 mm 3 mps 772 mmHg 95%
    16:00 +8°C° 0 mm 3 mps 772 mmHg 96%
    17:00 +8°C° 0 mm 3 mps 772 mmHg 96%
    18:00 +7°C° 0 mm 4 mps 772 mmHg 97%
    19:00 +7°C° 0 mm 4 mps 772 mmHg 97%
    20:00 +7°C° 0 mm 4 mps 772 mmHg 96%
    21:00 +7°C° 0 mm 4 mps 772 mmHg 96%
    22:00 +7°C° 0 mm 4 mps 771 mmHg 96%
    23:00 +7°C° 0.1 mm 5 mps 771 mmHg 96%

    21 December, Thursday

    Time Temperature Precipitation Wind Pressure Humidity
    00:00 +8°C° 0.1 mm 5 mps 771 mmHg 95%
    01:00 +8°C° 0.1 mm 5 mps 771 mmHg 95%
    02:00 +8°C° 0.5 mm 5 mps 770 mmHg 95%
    03:00 +8°C° 0.5 mm 5 mps 770 mmHg 95%
    04:00 +8°C° 0.5 mm 5 mps 770 mmHg 95%
    05:00 +7°C° 0.1 mm 4 mps 770 mmHg 95%
    06:00 +7°C° 0.1 mm 4 mps 770 mmHg 94%
    07:00 +8°C° 0.1 mm 3 mps 770 mmHg 94%
    08:00 +8°C° 0 mm 3 mps 770 mmHg 93%
    09:00 +7°C° 0 mm 2 mps 771 mmHg 91%
    10:00 +7°C° 0 mm 2 mps 771 mmHg 90%
    11:00 +7°C° 0 mm 2 mps 771 mmHg 87%
    12:00 +8°C° 0 mm 2 mps 770 mmHg 83%
    13:00 +8°C° 0 mm 2 mps 770 mmHg 80%
    14:00 +9°C° 0.1 mm 1 mps 770 mmHg 82%
    15:00 +8°C° 0.1 mm 1 mps 770 mmHg 84%
    16:00 +8°C° 0.1 mm 1 mps 770 mmHg 86%
    17:00 +7°C° 0.7 mm 2 mps 770 mmHg 87%
    18:00 +6°C° 0.7 mm 2 mps 770 mmHg 89%
    19:00 +6°C° 0.7 mm 2 mps 769 mmHg 91%
    20:00 +5°C° 0.4 mm 3 mps 770 mmHg 91%
    21:00 +5°C° 0.4 mm 3 mps 770 mmHg 92%
    22:00 +5°C° 0.4 mm 4 mps 770 mmHg 92%
    23:00 +5°C° 0.1 mm 4 mps 770 mmHg 90%

    22 December, Friday

    Time Temperature Precipitation Wind Pressure Humidity
    00:00 +5°C° 0.1 mm 5 mps 771 mmHg 89%
    01:00 +4°C° 0.1 mm 6 mps 771 mmHg 87%
    02:00 +5°C° 0 mm 5 mps 771 mmHg 86%
    03:00 +3°C° 0 mm 5 mps 772 mmHg 86%
    04:00 +3°C° 0 mm 5 mps 772 mmHg 85%
    05:00 +3°C° 0 mm 5 mps 773 mmHg 86%
    06:00 +3°C° 0 mm 5 mps 773 mmHg 86%
    07:00 +3°C° 0 mm 5 mps 773 mmHg 86%
    08:00 +3°C° 0 mm 5 mps 774 mmHg 85%
    09:00 +3°C° 0 mm 6 mps 774 mmHg 83%
    10:00 +3°C° 0 mm 6 mps 775 mmHg 82%
    11:00 +4°C° 0.1 mm 7 mps 775 mmHg 80%
    12:00 +5°C° 0.1 mm 7 mps 774 mmHg 78%
    13:00 +5°C° 0.1 mm 8 mps 774 mmHg 76%
    14:00 +5°C° 0 mm 7 mps 775 mmHg 77%
    15:00 +4°C° 0 mm 7 mps 775 mmHg 78%
    16:00 +4°C° 0 mm 6 mps 775 mmHg 79%
    17:00 +4°C° 0 mm 6 mps 775 mmHg 81%
    18:00 +3°C° 0 mm 6 mps 775 mmHg 83%
    19:00 +3°C° 0 mm 6 mps 775 mmHg 86%
    20:00 +3°C° 0.1 mm 6 mps 775 mmHg 86%
    21:00 +4°C° 0.1 mm 7 mps 775 mmHg 86%
    22:00 +4°C° 0.1 mm 8 mps 774 mmHg 86%
    23:00 +4°C° 0.2 mm 8 mps 774 mmHg 86%
    Show more

    XHprof extension not loaded